FENGYUN 1C DEB, 31155

Orbit data source: Space-Track

FENGYUN 1C DEB, 31155 is space debris in SSO originally from a launch on Mon, 10 May 1999 UTC launched from the Taiyaun Space Center, China (TSC). Fengyun 1C debris stems from the Chinese weather satellite Fengyun-1C, which was intentionally destroyed by a Chinese anti-satellite missile in 2007. This event dramatically increased the amount of space debris, with thousands of trackable fragments posing hazards to satellites and human spaceflight. The Fengyun 1C debris cloud has become a focal point in discussions about space sustainability and the need for international regulations to prevent the creation of new debris.

Loading next visibility...
Identifier
31155, 1999-025BHH
Orbit
SSO
Country
Flag of CNCN / PRC
Related business
Manufacturer
Unknown
Mission
Spacecraft
Bus & Motor
Unknown
Mass
Unknown
Launch date (UTC)
1999-05-10 (27 years ago)
Launch vehicle
Unknown
Launch site
Taiyaun Space Center, China (TSC)
Object type
Payload
Rocket body
Debris
Shape & HBR
Unknown shape, 0.1 m
Radar Cross Section
Small (<0.1 m²)

Expand to show TLE details & history
Last TLE update: 2 days ago

TLE from 2 days ago
0 FENGYUN 1C DEB
1 31155U 99025BHH 26120.15502516  .00001578  00000-0  90540-3 0  9998
2 31155  99.0272 194.3617 0087206 335.9720  23.7392 14.08988436975366
Epoch: 2026-04-30T03:43Z
TLE epoch observation values (Epoch: 2026-04-30T03:43:14.173Z)
Latitude
Longitude
-79.55305°
Altitude
808.001 km
Speed
7.479 km/s
True Right ascension
12h 57m 26s
True Declination
0° 00' 00"
Sunlit
Object was in full shadow at epoch
Visualization orbit readout
Latitude
Unknown
Longitude
Unknown
Altitude
Unknown
Speed
Unknown
Apparent Right ascension
Unknown
Apparent Declination
Unknown
Sunlit
N/A
Visualization observer readout
Local Sidereal Time
20:59:52
Azimuth
Unknown
Elevation
Unknown
Doppler factor
Unknown
Orbital elements
Apogee altitude
923.145 km
Perigee altitude
796.903 km
Semi-major axis
7,238.161 km
Eccentricity
0.00872
Inclination
99.0272°
RAAN
194.3617°
Arg. of periapsis
335.972°
True anomaly
24.14554°
Mean anomaly
23.7392°
Eccentric anomaly
23.94196°
Mean motion
3.52453 °/min
Orbital period
102.14 mins
BSTAR
0.0009054
Loading maneuver chart data...
Computing Atmospheric mass density...

Documentation

Showing up to 5 results
|